| time (UTC) | temp F | wind direction | speed MPH | gust MPH | rain 1hr in | rain 24hr in | rain mn in | humidity % | barometer mb |
| 20260507094539 | 53 | 57 | 0.0 | 0.0 | 0.00 | 0.00 | 0.00 | 91 | 1015.7 |
| 20260507093033 | 53 | 56 | 0.0 | 0.0 | 0.00 | 0.00 | 0.00 | 91 | 1016.1 |
| 20260507091533 | 54 | 54 | 0.0 | 0.0 | 0.00 | 0.00 | 0.00 | 91 | 1015.9 |
| 20260507090033 | 53 | 68 | 0.0 | 0.0 | 0.00 | 0.00 | 0.00 | 90 | 1016.2 |
| 20260507084527 | 54 | 68 | 0.0 | 0.0 | 0.00 | 0.00 | 0.00 | 90 | 1016.4 |
| 20260507083025 | 55 | 68 | 0.0 | 0.0 | 0.00 | 0.00 | 0.00 | 90 | 1016.6 |
| 20260507081535 | 55 | 153 | 0.0 | 0.0 | 0.00 | 0.00 | 0.00 | 89 | 1016.6 |
| 20260507080021 | 55 | 153 | 0.0 | 0.0 | 0.00 | 0.00 | 0.00 | 89 | 1016.7 |
| 20260507074539 | 55 | 134 | 0.0 | 0.0 | 0.00 | 0.00 | 0.00 | 88 | 1016.7 |
| 20260507073018 | 56 | 139 | 0.0 | 0.0 | 0.00 | 0.00 | 0.00 | 88 | 1016.7 |
| 20260507071517 | 56 | 124 | 0.0 | 0.0 | 0.00 | 0.00 | 0.00 | 88 | 1016.8 |
| 20260507070020 | 56 | 139 | 0.0 | 1.0 | 0.00 | 0.00 | 0.00 | 88 | 1016.7 |
| 20260507064514 | 56 | 140 | 0.0 | 0.0 | 0.00 | 0.00 | 0.00 | 86 | 1016.9 |
| 20260507063021 | 57 | 140 | 0.0 | 0.0 | 0.00 | 0.00 | 0.00 | 86 | 1017.0 |
| 20260507061512 | 57 | 140 | 0.0 | 0.0 | 0.00 | 0.00 | 0.00 | 85 | 1016.9 |
| 20260507060011 | 58 | 145 | 0.0 | 0.0 | 0.00 | 0.00 | 0.00 | 84 | 1016.9 |
| 20260507054512 | 58 | 145 | 0.0 | 1.0 | 0.00 | 0.00 | 0.00 | 83 | 1016.9 |
| 20260507053007 | 58 | 130 | 0.0 | 0.0 | 0.00 | 0.00 | 0.00 | 83 | 1016.9 |
| 20260507051506 | 59 | 141 | 0.0 | 0.0 | 0.00 | 0.00 | 0.00 | 82 | 1016.9 |
| 20260507050017 | 59 | 141 | 0.0 | 0.0 | 0.00 | 0.00 | 0.00 | 81 | 1016.9 |
| 20260507044506 | 60 | 141 | 0.0 | 0.0 | 0.00 | 0.00 | 0.00 | 81 | 1016.8 |
| 20260507043003 | 60 | 143 | 0.0 | 0.0 | 0.00 | 0.00 | 0.00 | 80 | 1016.7 |
| 20260507041502 | 61 | 139 | 0.0 | 1.0 | 0.00 | 0.00 | 0.00 | 78 | 1016.6 |
| 20260507040005 | 61 | 119 | 0.0 | 1.0 | 0.00 | 0.00 | 0.00 | 77 | 1016.5 |
| 20260507034500 | 62 | 129 | 0.0 | 1.0 | 0.00 | 0.00 | 0.00 | 76 | 1016.4 |
| 20260507033106 | 62 | 138 | 0.0 | 1.0 | 0.00 | 0.00 | 0.00 | 74 | 1016.2 |
| 20260507031608 | 63 | 131 | 0.0 | 0.0 | 0.00 | 0.00 | 0.00 | 72 | 1016.0 |
| 20260507030100 | 64 | 124 | 0.0 | 0.0 | 0.00 | 0.00 | 0.00 | 71 | 1015.9 |
| 20260507024558 | 65 | 130 | 0.0 | 1.0 | 0.00 | 0.00 | 0.00 | 68 | 1015.7 |
| 20260507023105 | 66 | 94 | 0.0 | 0.0 | 0.00 | 0.00 | 0.00 | 65 | 1015.5 |
| 20260507021557 | 67 | 56 | 0.0 | 0.0 | 0.00 | 0.00 | 0.00 | 62 | 1015.5 |
| 20260507020057 | 68 | 76 | 0.0 | 0.0 | 0.00 | 0.00 | 0.00 | 60 | 1015.3 |
| 20260507014604 | 69 | 71 | 0.0 | 0.0 | 0.00 | 0.00 | 0.00 | 59 | 1015.2 |
| 20260507013055 | 70 | 35 | 0.0 | 5.0 | 0.00 | 0.00 | 0.00 | 59 | 1015.2 |
| 20260507011555 | 70 | 76 | 0.0 | 0.0 | 0.00 | 0.00 | 0.00 | 57 | 1015.1 |
| 20260507010057 | 71 | 297 | 0.0 | 1.0 | 0.00 | 0.00 | 0.00 | 56 | 1015.1 |
| 20260507004554 | 72 | 23 | 0.0 | 0.0 | 0.00 | 0.00 | 0.00 | 55 | 1015.0 |
| 20260507003053 | 73 | 56 | 0.0 | 3.0 | 0.00 | 0.00 | 0.00 | 54 | 1015.1 |
| 20260507001601 | 74 | 248 | 0.0 | 2.0 | 0.00 | 0.00 | 0.00 | 53 | 1014.9 |
| 20260507000052 | 75 | 289 | 0.0 | 0.0 | 0.00 | 0.00 | 0.00 | 51 | 1014.8 |
| 20260506234551 | 76 | 174 | 0.0 | 6.0 | 0.00 | 0.00 | 0.00 | 51 | 1014.7 |
| 20260506233107 | 76 | 278 | 0.0 | 4.0 | 0.00 | 0.00 | 0.00 | 50 | 1014.7 |
| 20260506231550 | 77 | 1 | 0.0 | 1.0 | 0.00 | 0.00 | 0.00 | 49 | 1014.7 |
| 20260506230048 | 77 | 284 | 0.0 | 2.0 | 0.00 | 0.00 | 0.00 | 47 | 1014.7 |
| 20260506224547 | 78 | 247 | 0.0 | 2.0 | 0.00 | 0.00 | 0.00 | 49 | 1014.8 |
| 20260506223046 | 78 | 306 | 0.0 | 2.0 | 0.00 | 0.00 | 0.00 | 49 | 1015.0 |
| 20260506221543 | 78 | 322 | 0.0 | 5.0 | 0.00 | 0.00 | 0.00 | 50 | 1015.0 |
| 20260506220041 | 78 | 251 | 0.0 | 1.0 | 0.00 | 0.00 | 0.00 | 48 | 1015.1 |
| 20260506214540 | 78 | 245 | 0.0 | 3.0 | 0.00 | 0.00 | 0.00 | 49 | 1015.3 |
| 20260506213038 | 79 | 205 | 0.0 | 3.0 | 0.00 | 0.00 | 0.00 | 48 | 1015.3 |
| 20260506211537 | 79 | 253 | 0.0 | 2.0 | 0.00 | 0.00 | 0.00 | 49 | 1015.3 |
| 20260506210035 | 79 | 241 | 0.0 | 3.0 | 0.00 | 0.00 | 0.00 | 49 | 1015.4 |
| 20260506204535 | 78 | 250 | 0.0 | 6.0 | 0.00 | 0.00 | 0.00 | 50 | 1015.5 |
| 20260506203034 | 78 | 40 | 1.0 | 5.0 | 0.00 | 0.00 | 0.00 | 48 | 1015.4 |
| 20260506201532 | 78 | 136 | 0.0 | 4.0 | 0.00 | 0.00 | 0.00 | 47 | 1015.6 |
| 20260506200028 | 79 | 235 | 0.0 | 5.0 | 0.00 | 0.00 | 0.00 | 47 | 1015.8 |
| 20260506194525 | 78 | 61 | 0.0 | 1.0 | 0.00 | 0.00 | 0.00 | 45 | 1016.0 |
| 20260506193024 | 77 | 25 | 1.0 | 6.0 | 0.00 | 0.00 | 0.00 | 45 | 1016.1 |
| 20260506191519 | 76 | 90 | 0.0 | 2.0 | 0.00 | 0.00 | 0.00 | 46 | 1016.3 |
| 20260506190015 | 75 | 346 | 0.0 | 2.0 | 0.00 | 0.00 | 0.00 | 47 | 1016.5 |
| 20260506184514 | 75 | 63 | 0.0 | 1.0 | 0.00 | 0.00 | 0.00 | 49 | 1016.7 |
| 20260506183011 | 73 | 46 | 0.0 | 3.0 | 0.00 | 0.00 | 0.00 | 49 | 1016.9 |
| 20260506181508 | 72 | 50 | 0.0 | 3.0 | 0.00 | 0.00 | 0.00 | 52 | 1017.1 |
| 20260506180007 | 71 | 1 | 0.0 | 3.0 | 0.00 | 0.03 | 0.00 | 54 | 1017.3 |
| 20260506174505 | 70 | 234 | 0.0 | 3.0 | 0.00 | 0.03 | 0.00 | 55 | 1017.5 |
| 20260506173002 | 70 | 38 | 0.0 | 2.0 | 0.00 | 0.03 | 0.00 | 54 | 1017.7 |
| 20260506171603 | 69 | 295 | 0.0 | 4.0 | 0.00 | 0.03 | 0.00 | 56 | 1017.8 |
| 20260506170105 | 68 | 257 | 0.0 | 2.0 | 0.00 | 0.03 | 0.00 | 57 | 1017.8 |
| 20260506164602 | 68 | 27 | 0.0 | 3.0 | 0.00 | 0.03 | 0.00 | 58 | 1017.7 |
| 20260506163110 | 66 | 41 | 0.0 | 2.0 | 0.00 | 0.03 | 0.00 | 61 | 1017.8 |
| 20260506161549 | 65 | 101 | 0.0 | 0.0 | 0.00 | 0.03 | 0.00 | 63 | 1017.7 |
| 20260506160047 | 64 | 239 | 0.0 | 0.0 | 0.00 | 0.03 | 0.00 | 65 | 1017.8 |
| 20260506154606 | 63 | 228 | 0.0 | 0.0 | 0.00 | 0.03 | 0.00 | 67 | 1017.9 |
| 20260506153050 | 62 | 62 | 0.0 | 0.0 | 0.00 | 0.03 | 0.00 | 70 | 1018.0 |
| 20260506151536 | 59 | 63 | 0.0 | 0.0 | 0.00 | 0.03 | 0.00 | 77 | 1018.1 |
| 20260506150034 | 57 | 65 | 0.0 | 0.0 | 0.00 | 0.03 | 0.00 | 79 | 1018.0 |
| 20260506144529 | 55 | 65 | 0.0 | 0.0 | 0.00 | 0.10 | 0.00 | 83 | 1018.1 |
| 20260506143033 | 54 | 65 | 0.0 | 0.0 | 0.00 | 0.10 | 0.00 | 87 | 1017.9 |
| 20260506141522 | 53 | 67 | 0.0 | 0.0 | 0.00 | 0.10 | 0.00 | 88 | 1018.0 |
| 20260506140022 | 53 | 67 | 0.0 | 0.0 | 0.00 | 0.11 | 0.00 | 89 | 1017.8 |
| 20260506134520 | 51 | 67 | 0.0 | 0.0 | 0.00 | 0.11 | 0.00 | 93 | 1017.8 |
| 20260506133017 | 49 | 67 | 0.0 | 0.0 | 0.00 | 0.11 | 0.00 | 93 | 1017.7 |
| 20260506131516 | 48 | 67 | 0.0 | 0.0 | 0.00 | 0.11 | 0.00 | 93 | 1017.5 |
| 20260506130018 | 48 | 67 | 0.0 | 0.0 | 0.00 | 0.19 | 0.00 | 93 | 1017.4 |
| 20260506124515 | 48 | 67 | 0.0 | 0.0 | 0.00 | 0.19 | 0.00 | 93 | 1017.3 |
| 20260506123014 | 48 | 67 | 0.0 | 0.0 | 0.00 | 0.19 | 0.00 | 92 | 1017.2 |
| 20260506121513 | 49 | 67 | 0.0 | 0.0 | 0.00 | 0.19 | 0.00 | 92 | 1017.1 |
| 20260506120012 | 49 | 67 | 0.0 | 0.0 | 0.00 | 0.19 | 0.00 | 91 | 1017.0 |
| 20260506114512 | 50 | 67 | 0.0 | 0.0 | 0.00 | 0.19 | 0.00 | 92 | 1017.0 |
| 20260506113011 | 50 | 67 | 0.0 | 0.0 | 0.00 | 0.19 | 0.00 | 92 | 1017.1 |
| 20260506111513 | 49 | 67 | 0.0 | 0.0 | 0.00 | 0.19 | 0.00 | 92 | 1016.9 |
| 20260506110009 | 49 | 67 | 0.0 | 0.0 | 0.00 | 0.21 | 0.00 | 93 | 1017.0 |
| 20260506104508 | 48 | 67 | 0.0 | 0.0 | 0.00 | 0.21 | 0.00 | 92 | 1017.0 |
| 20260506103007 | 48 | 67 | 0.0 | 0.0 | 0.00 | 0.21 | 0.00 | 91 | 1016.9 |
| 20260506101506 | 49 | 67 | 0.0 | 0.0 | 0.00 | 0.21 | 0.00 | 91 | 1016.9 |
| 20260506100004 | 49 | 67 | 0.0 | 0.0 | 0.00 | 0.25 | 0.00 | 90 | 1016.6 |